www.pogodaiklimat.ru

Погода и климат >> Архив погоды >> Гондурас >> Amapala


ПОГОДА в Amapala

  • Прогноз погоды в Amapala
  • Монитор погоды в Amapala
  • Климат города

АРХИВ ПОГОДЫ в Amapala

Время (UTC), дата Ветер
(напр.,м/с)
 
Видим.   Явления Облачность Т
(С)
Тd
(С)
f
(%)
Тe
(С)
Тes
(С)
Комфортность P
(гПа)
Po
(гПа)
Тmin
(С)
Tmax
(С)
R
(мм)
S
(см)
12 21.03 С 5 10 км 1/0
[Ci fib]
+26.2 +16.2 54 +30 +30 душно 1017.1 1016.6 +26.0 +37.4
15 21.03 С 3 20 км 1/0
[Ci fib]
+30.2 +17.2 46 +34 +43 очень
душно
1017.7 1017.2
18 21.03 ЮЗ 2 20 км ясно +34.8 +18.4 38 +39 +60 опасность
солнечного
удара
1016.3 1015.8 +26.0 +34.8
21 21.03 З 2 20 км 1/1 900 м
[Cu hum]
+36.8 +21.0 40 +44 +52 опасность
перегрева
1012.0 1011.5
00 22.03 Ю 4 20 км 4/1 900 м
[Cu hum Ac trans Ci fib]
+30.2 +23.1 66 +40 +40 очень
душно
1011.4 1011.9 +26.0 +37.6
12 22.03 С 2 20 км 9/0
[Cs]
+26.0 +19.6 68 +32 +32 очень
душно
1014.0 1013.5 +25.4 +27.6
15 22.03 С 3 20 км 5/0
[Ci fib]
+28.4 +19.8 60 +35 +43 очень
душно
1015.5 1015.0
18 22.03 ЮЗ 2 20 км 9/0
[Cs]
+34.8 +18.8 39 +40 +57 опасность
солнечного
удара
1017.4 1014.2 +25.4 +34.8
21 22.03 ЮЗ 4 20 км 9/0 600 м
[Cs]
+35.2 +19.3 39 +40 +46 очень
душно
1011.3 1010.8
00 23.03 ЮЗ 5 20 км 3/1 900 м
[Cu hum Ci fib]
+30.8 +22.5 61 +40 +40 очень
душно
1011.2 1010.7 +25.4 +36.0
12 23.03 С 3 20 км ясно +25.6 +19.2 68 +31 +31 очень
душно
1016.0 1015.5 +25.0 +36.0
15 23.03 С 3 20 км 1/0
[Ci fib]
+29.2 +19.7 57 +35 +45 очень
душно
1017.9 1017.4
18 23.03 Ю 2 20 км ясно +34.6 +21.9 48 +43 +64 опасность
перегрева
1016.3 1015.8 +25.0 +34.6
21 23.03 Ю 3 20 км 1/1 900 м
[Cu hum]
+36.8 +19.9 37 +42 +49 опасность
перегрева
1012.2 1011.7
00 24.03 Ю 5 20 км 1/1 900 м
[Cu hum]
+29.8 +24.4 73 +42 +42 опасность
перегрева
1011.6 1011.1 +25.0 +36.8
12 24.03 С 2 20 км ясно +25.8 +20.4 72 +32 +32 очень
душно
1015.8 1015.3 +25.4 +36.8
15 24.03 10 км ясно +30.0 +20.0 55 1017.6 1017.1
18 24.03 СВ 2 20 км ясно +35.0 +18.3 37 +39 +60 опасность
солнечного
удара
1015.6 1015.1 +25.4 +35.0
21 24.03 ЮЗ 4 10 км 1/1 1020 м
[Cu hum]
+34.8 +19.1 40 +40 +46 очень
душно
1012.9 1012.4
00 25.03 ЮЗ 3 20 км ясно +30.6 +21.9 60 +39 +39 очень
душно
1011.5 1011.0 +25.4 +36.4
12 25.03 штиль 0 20 км ясно +24.2 +20.2 78 +30 +30 очень
душно
1016.0 1015.5 +23.5 +36.4
15 25.03 штиль 0 20 км ясно +31.2 +20.8 54 +38 +54 опасность
солнечного
удара
1017.4 1016.9
18 25.03 Ю 2 20 км 1/1 750 м
[Cu hum]
+33.8 +22.2 51 +43 +62 опасность
перегрева
1015.4 1014.9 +23.5 +33.8
21 25.03 Ю 3 20 км 1/1 900 м
[Cu hum]
+34.2 +22.1 49 +43 +50 опасность
перегрева
1012.2 1011.7
00 26.03 ЮЗ 2 7000 м 1/1 900 м
[Cu hum]
+29.8 +23.5 69 +40 +40 очень
душно
1011.9 1011.4 +23.5 +37.0
12 26.03 штиль 0 20 км 3/0
[Ac trans]
+25.6 +20.4 73 +32 +32 очень
душно
1015.5 1015.0 +25.0 +37.0
15 26.03 СВ 3 20 км 1/1 840 м
[Cu hum]
+31.4 +20.7 53 +38 +47 очень
душно
1016.1 1015.6
18 26.03 ЮЗ 2 20 км 1/1 960 м
[Cu hum]
+33.8 +19.9 44 +40 +59 опасность
солнечного
удара
1015.1 1014.6 +25.0 +33.8
21 26.03 ЮЗ 4 20 км ясно +33.4 +21.1 49 +41 +48 опасность
перегрева
1011.9 1011.4
00 27.03 ЮЗ 4 20 км 3/1 900 м
[Cu hum Ac trans]
+29.6 +23.0 68 +40 +40 очень
душно
1011.5 1011.0 +25.0 +35.0
12 27.03 штиль 0 20 км 3/1 750 м
[Cu hum Ac trans]
+25.2 +22.7 86 +33 +33 очень
душно
1012.9 1012.4 +24.5 +35.0
15 27.03 СВ 7 20 км 1/1 750 м
[Cu hum]
+30.2 +22.2 62 +39 +42 очень
душно
1015.4 1014.9
21 27.03 ЮЗ 4 20 км ясно +33.0 +24.4 61 +46 +52 опасность
перегрева
1011.3 1010.8
00 28.03 Ю 3 20 км ясно +30.4 +23.9 68 +42 +42 опасность
перегрева
1011.3 1010.8 +24.5 +34.5

 

Местоположение метеостанции Amapala (Гондурас): широта 13.27 долгота -87.65 высота над уровнем моря 5 м.

В архиве по умолчанию представлена погода в Amapala за последнюю неделю. Архивные данные за месяц целиком и за предыдущие месяцы, начиная с января 2011 года, Вы можете получить, выбрав интересующий диапазон дат из раскрывающегося списка и нажав кнопку "Ввод!".

Внимание! Время в таблицах - всемирное. Для получения местного времени необходимо прибавить поправку, которая в Amapala равна -6 ч.

Смотрите также архив погоды в соседних городах и на ближайших метеорологических станциях:

Погода в Choluteca (Гондурас) (51 км)
Погода в Chinandega (Никарагуа) (91 км)
Погода в Tegucigalpa (Гондурас) (99 км)
Погода в La Esperanza (Гондурас) (129 км)
Погода в Jinotega (Никарагуа) (182 км)
Погода в Managua (Никарагуа) (203 км)
Погода в Santa Rosa De Copan (Гондурас) (208 км)
Погода в Nueva Ocotepeque (Гондурас) (210 км)
Погода в Yoro (Гондурас) (219 км)
Погода в La Mesa (Гондурас) (244 км)

Пояснения к столбцам:

Ветер - указаны скорость ветра в м/с - средняя за 10 мин, порывы в срок и между сроками (в фигурных скобках) и направление, откуда дует ветер: С - северный, СВ - северо-восточный, В - восточный, ЮВ - юго-восточный, Ю - южный, ЮЗ - юго-западный, З - западный, СЗ - северо-западный.
Видимость - горизонтальная дальность видимости в метрах или километрах. При видимости от 1 до 10 км при отсутствии осадков обычно наблюдается дымка, при ухудшении видимости до 1 км и менее - туман. В сухую погоду видимость может ухудшаться дымом, пылью или мглою.
Явления - указаны атмосферные явления, наблюдавшиеся в срок или в последний час перед сроком; фигурными скобками обозначены явления, наблюдавшиеся между сроками (за 1-3 часа до срока); квадратными скобками обозначены град или гололедные отложения с указанием их диаметра в мм.
Облачность - указаны через наклонную черту общая и нижняя облачность в баллах и высота нижней границы облаков в метрах; квадратными скобками обозначены формы облаков: Ci - перистые, Cs - перисто-слоистые, Cc - перисто-кучевые, Ac - высококучевые, As - высокослоистые, Sc - слоисто-кучевые, Ns - слоисто-дождевые, Cu - кучевые, Cb - кучево-дождевые. Подробнее классификацию облаков см. в Атласе облаков (PDF).
T - Температура воздуха - температура, измеренная на высоте 2 м над землей.
Td - Температура точки росы - температура, при понижении до которой содержащийся в воздухе водяной пар достигнет насыщения.
f - Относительная влажность воздуха - влажноcть воздуха, измеренная на высоте 2 м над землей.
Te - Эффективная температура - температура, которую ощущает одетый по сезону человек в тени. Характеристика душности погоды. При расчете учитывается влияние влажности воздуха и скорости ветра на теплоощущения человека.
Tes - Эффективная температура на солнце - температура, которую ощущает человек, с поправкой на солнечный нагрев. Характеристика знойности погоды. Зависит от высоты солнца над горизонтом, облачности и скорости ветра. Ночью, в пасмурную погоду, а также при ветре 12 м/с и более поправка равна нулю.
P - Атмосферное давление - приведенное к уровню моря атмосферное давление.
Po - Атмосферное давление - измеренное на уровне метеостанции атмосферное давление.
Tmin - Минимальная температура - минимум температуры воздуха на высоте 2 м над землей.
Tmax - Максимальная температура - максимум температуры воздуха на высоте 2 м над землей.
R - Количество осадков - Количество выпавших осадков, мм. При наведении курсора мыши на число - период времени, за который выпало указанное количество осадков.
S - Снежный покров - Высота снежного покрова, см. При наведении курсора мыши на число - состояние снежного покрова и степень покрытия местности в баллах.